Snowfall_Accumulation
0.0 0.0 0.0 0.0 0.0 0.0 0.0 0.0 0.0 0.0 0.0 0.0 0.0 0.0 0.0 0.0 0.0 0.0 0.0 nan nan nan nan nan nan nan nan nan nan nan nan nan nan nan nan nan nan nan
0.0 0.0 0.0 0.0 0.0 0.0 0.0 0.0 0.0 0.0 0.0 0.0 0.0 0.0 0.0 0.0 0.0 0.0 0.0 nan nan nan nan nan nan nan nan nan nan nan nan nan nan nan nan nan nan nan
0.0 0.0 0.0 0.0 0.0 0.0 0.0 0.0 0.0 0.0 0.0 0.0 0.0 0.0 0.0 0.0 0.0 0.0 0.0 0.0 0.0 nan nan nan nan nan nan nan nan nan nan nan nan nan nan nan nan nan
0.0 0.0 0.0 0.0 0.0 0.0 0.0 0.0 0.0 0.0 0.0 0.0 0.0 0.0 0.0 0.0 0.0 0.0 0.0 0.0 0.0 nan nan nan nan nan nan nan nan nan nan nan nan nan nan nan nan nan
0.0 0.0 0.0 0.0 0.0 0.0 0.0 0.0 0.0 0.0 0.0 0.0 0.0 0.0 0.0 0.0 0.0 0.0 0.0 0.0 0.0 nan nan nan nan nan nan nan nan nan nan nan nan nan nan nan nan nan
0.0 0.0 0.0 0.0 0.0 0.0 0.0 0.0 0.0 0.0 0.0 0.0 0.0 0.0 0.0 0.0 0.0 0.0 0.0 0.0 0.0 0.0 nan nan nan nan nan nan nan nan nan nan nan nan nan nan nan nan
0.0 0.0 0.0 nan nan nan 0.0 0.0 0.0 0.0 0.0 0.0 0.0 0.0 0.0 0.0 0.0 0.0 0.0 0.0 0.0 0.0 0.0 0.0 0.0 0.0 0.0 nan nan nan nan nan nan nan nan nan nan nan
0.0 0.0 0.0 0.0 0.0 nan nan nan nan 0.0 0.0 0.0 0.0 0.0 0.0 0.0 0.0 0.0 0.0 0.0 0.1 0.0 0.0 0.0 0.0 0.0 0.0 0.0 nan nan nan nan nan nan nan nan nan nan
0.0 0.0 0.0 0.0 nan 0.0 nan nan nan nan nan 0.0 0.0 0.0 0.0 0.0 0.0 0.0 0.0 0.0 0.2 0.3 0.1 0.4 0.1 0.6 0.1 0.0 nan nan nan nan nan nan nan nan nan nan
0.0 0.0 0.0 0.0 0.0 0.0 0.0 0.0 0.1 0.1 0.1 0.1 0.4 1.4 1.3 0.2 0.0 0.0 0.1 0.2 0.6 1.8 0.5 1.9 2.0 3.5 0.8 0.4 nan nan nan nan nan nan nan nan nan nan
0.0 0.0 0.0 0.0 nan nan 0.0 0.5 2.7 6.7 nan nan nan nan nan nan nan 0.3 0.9 0.8 2.9 5.1 4.4 3.3 4.6 4.6 4.0 3.6 2.1 nan nan nan nan nan nan nan nan nan
0.6 0.5 nan 0.0 nan nan 0.1 0.2 1.7 8.0 6.1 6.5 6.7 7.5 nan nan nan 1.1 0.9 2.0 4.2 5.5 4.1 4.5 3.9 4.3 5.5 3.1 2.8 2.2 1.7 nan nan nan nan nan nan 0.2
3.3 4.3 3.8 nan nan nan nan 3.1 9.0 11.8 9.5 9.8 9.2 9.2 7.5 6.3 5.9 5.2 4.1 3.6 5.6 7.7 5.6 4.3 4.5 4.0 4.2 3.6 2.7 2.7 2.2 1.9 1.1 0.5 nan nan nan 0.0
5.1 4.4 5.7 nan nan nan 3.4 nan nan 3.8 10.2 11.1 10.1 10.1 8.4 7.1 6.3 6.0 5.2 4.4 4.1 4.0 3.0 2.3 5.9 3.5 3.7 3.9 3.2 1.8 1.3 0.8 0.4 0.2 0.3 nan nan nan
5.1 9.5 nan nan nan 1.6 nan nan 3.4 6.5 7.9 9.3 9.4 9.9 7.7 5.7 3.0 2.9 1.9 1.8 1.9 1.7 1.5 1.4 2.4 1.8 2.1 2.4 1.9 1.3 0.7 0.2 0.3 0.2 0.3 0.4 0.5 0.5
2.7 6.5 4.0 5.0 3.5 4.9 5.6 6.7 6.9 6.6 6.7 7.2 6.2 4.6 3.5 3.2 2.9 2.2 2.6 2.0 1.8 1.0 0.2 0.2 0.3 0.3 1.4 0.7 0.5 0.6 0.3 0.5 0.1 0.2 0.3 0.6 0.6 1.0
5.5 7.8 6.5 5.3 5.4 5.5 5.4 5.0 4.3 3.9 4.9 5.6 5.0 3.9 3.0 2.1 1.8 1.2 1.5 1.8 2.7 2.1 2.0 0.5 0.1 0.1 0.3 0.1 1.3 0.3 0.4 0.5 0.4 0.5 0.9 1.3 1.4 1.2
5.1 7.3 11.7 11.7 8.4 6.5 6.9 6.4 5.6 4.2 4.3 3.9 4.5 3.1 2.9 3.4 2.6 2.0 1.8 2.0 2.4 1.7 1.5 1.3 1.9 1.8 1.2 0.9 0.7 0.7 0.4 0.4 0.4 0.3 0.5 1.6 1.0 1.0
8.5 8.8 12.4 12.2 7.6 4.7 4.9 4.8 5.7 5.1 2.5 3.4 3.6 4.1 4.0 3.2 3.6 2.9 3.0 2.5 2.4 1.3 0.9 0.8 1.3 3.4 6.7 9.1 0.4 nan 1.5 0.7 1.1 1.1 0.5 1.2 2.5 1.8
4.6 6.7 9.3 7.7 4.9 4.3 4.0 4.0 3.9 4.8 4.8 4.0 5.8 7.9 9.2 5.9 5.2 3.6 2.9 4.7 2.2 0.9 0.7 0.4 0.8 1.2 4.7 10.1 10.9 3.1 nan 2.4 2.2 2.7 2.1 0.7 0.6 nan
3.1 2.8 4.8 4.1 3.1 2.0 6.8 7.9 10.5 9.2 9.3 12.4 7.0 7.4 16.2 4.1 4.7 3.7 4.0 3.0 2.8 1.2 1.2 0.8 0.5 0.2 1.3 2.6 16.6 4.7 2.6 nan 0.5 1.2 1.5 2.4 2.3 1.3
4.9 3.1 3.0 3.4 5.0 4.7 9.5 15.4 13.0 12.6 9.2 6.6 13.3 19.2 16.6 7.8 7.5 6.1 7.3 7.3 2.3 2.7 1.4 0.6 0.3 0.6 1.2 2.6 3.2 7.3 2.1 2.0 nan nan nan nan 4.5 7.5
8.5 4.3 5.9 7.5 9.1 9.4 4.4 9.1 3.9 8.0 7.3 7.5 6.6 6.9 31.2 9.0 5.2 5.5 6.1 4.4 2.8 2.7 1.8 2.1 1.1 0.9 1.0 1.5 2.7 3.7 2.0 4.0 1.6 1.7 2.2 nan nan nan
Water_Equivalent
0.00 0.00 0.00 0.00 0.00 0.00 0.00 0.00 0.00 0.00 0.00 0.00 0.00 0.00 0.00 0.00 0.00 0.00 0.00 nan nan nan nan nan nan nan nan nan nan nan nan nan nan nan nan nan nan nan
0.00 0.00 0.00 0.00 0.00 0.00 0.00 0.00 0.00 0.00 0.00 0.00 0.00 0.00 0.00 0.00 0.00 0.00 0.00 nan nan nan nan nan nan nan nan nan nan nan nan nan nan nan nan nan nan nan
0.00 0.00 0.00 0.00 0.00 0.00 0.00 0.00 0.00 0.00 0.00 0.00 0.00 0.00 0.00 0.00 0.00 0.00 0.00 0.00 0.00 nan nan nan nan nan nan nan nan nan nan nan nan nan nan nan nan nan
0.00 0.00 0.00 0.00 0.00 0.00 0.00 0.00 0.00 0.00 0.00 0.00 0.00 0.00 0.00 0.00 0.00 0.00 0.00 0.00 0.00 nan nan nan nan nan nan nan nan nan nan nan nan nan nan nan nan nan
0.00 0.00 0.00 0.00 0.00 0.00 0.00 0.00 0.00 0.00 0.00 0.00 0.00 0.00 0.00 0.00 0.00 0.00 0.00 0.00 0.00 nan nan nan nan nan nan nan nan nan nan nan nan nan nan nan nan nan
0.00 0.00 0.00 0.00 0.00 0.00 0.00 0.00 0.00 0.00 0.00 0.00 0.00 0.00 0.00 0.00 0.00 0.00 0.00 0.00 0.00 0.00 nan nan nan nan nan nan nan nan nan nan nan nan nan nan nan nan
0.00 0.00 0.00 nan nan nan 0.00 0.00 0.00 0.00 0.00 0.00 0.00 0.00 0.00 0.00 0.00 0.00 0.00 0.00 0.00 0.00 0.00 0.00 0.00 0.00 0.00 nan nan nan nan nan nan nan nan nan nan nan
0.00 0.00 0.00 0.00 0.00 nan nan nan nan 0.00 0.00 0.00 0.00 0.00 0.00 0.00 0.00 0.00 0.00 0.00 0.05 0.00 0.00 0.00 0.00 0.00 0.00 0.00 nan nan nan nan nan nan nan nan nan nan
0.00 0.00 0.00 0.00 nan 0.00 nan nan nan nan nan 0.00 0.00 0.00 0.00 0.00 0.00 0.00 0.00 0.02 0.09 0.09 0.03 0.17 0.02 0.18 0.04 0.00 nan nan nan nan nan nan nan nan nan nan
0.00 0.00 0.00 0.00 0.00 0.00 0.00 0.00 0.01 0.02 0.03 0.02 0.09 0.32 0.33 0.06 0.01 0.01 0.02 0.08 0.23 0.51 0.15 0.49 0.59 0.71 0.25 0.14 nan nan nan nan nan nan nan nan nan nan
0.00 0.00 0.00 0.00 nan nan 0.00 0.11 0.57 1.32 nan nan nan nan nan nan nan 0.13 0.32 0.27 0.76 0.96 0.87 0.82 1.03 1.08 1.06 0.96 0.62 nan nan nan nan nan nan nan nan nan
0.13 0.11 nan 0.02 nan nan 0.02 0.05 0.35 1.39 1.15 1.16 1.18 1.31 nan nan nan 0.30 0.29 0.57 0.89 1.03 0.82 0.92 0.82 0.89 0.99 0.66 0.60 0.46 0.35 nan nan nan nan nan nan 0.03
0.60 0.75 0.84 nan nan nan nan 0.60 1.56 2.11 1.67 1.74 1.60 1.62 1.36 1.15 1.10 1.01 0.81 0.80 1.09 1.22 0.98 0.93 0.84 0.78 0.79 0.64 0.48 0.46 0.39 0.33 0.20 0.09 nan nan nan 0.00
0.82 0.80 1.13 nan nan nan 0.82 nan nan 1.02 2.17 2.24 1.99 1.81 1.45 1.22 1.06 0.99 0.86 0.75 0.71 0.64 0.51 0.44 1.02 0.57 0.62 0.61 0.50 0.27 0.21 0.15 0.09 0.04 0.09 nan nan nan
1.02 1.73 nan nan nan 0.52 nan nan 1.11 1.62 1.85 2.06 1.88 1.82 1.41 0.98 0.50 0.47 0.29 0.26 0.27 0.27 0.26 0.26 0.44 0.30 0.37 0.38 0.28 0.20 0.13 0.05 0.08 0.05 0.10 0.14 0.14 0.17
0.76 1.38 1.31 1.20 1.16 1.35 1.28 1.24 1.26 1.25 1.26 1.25 0.99 0.74 0.59 0.54 0.49 0.38 0.45 0.36 0.33 0.20 0.04 0.04 0.05 0.05 0.28 0.14 0.11 0.14 0.07 0.12 0.04 0.05 0.11 0.17 0.17 0.29
1.33 1.50 1.17 0.89 0.82 0.80 0.79 0.76 0.66 0.61 0.75 0.85 0.75 0.57 0.45 0.33 0.31 0.23 0.28 0.32 0.48 0.36 0.38 0.11 0.01 0.01 0.06 0.02 0.31 0.08 0.09 0.10 0.08 0.12 0.22 0.33 0.39 0.35
0.94 1.19 1.73 1.73 1.17 0.86 0.93 0.84 0.74 0.66 0.59 0.60 0.71 0.48 0.44 0.52 0.39 0.34 0.30 0.34 0.38 0.26 0.22 0.19 0.33 0.31 0.21 0.15 0.13 0.14 0.08 0.10 0.10 0.08 0.15 0.39 0.25 0.26
1.30 1.15 1.69 1.77 1.07 0.58 0.62 0.61 0.77 0.72 0.30 0.53 0.59 0.66 0.66 0.51 0.62 0.50 0.54 0.45 0.43 0.22 0.15 0.16 0.25 0.66 0.99 1.29 0.11 nan 0.33 0.17 0.27 0.29 0.14 0.27 0.52 0.41
0.63 0.88 1.18 1.03 0.61 0.50 0.46 0.48 0.50 0.67 0.70 0.60 0.86 1.13 1.31 0.90 0.86 0.59 0.51 0.72 0.40 0.19 0.15 0.09 0.16 0.22 0.62 1.38 1.81 0.71 nan 0.57 0.49 0.54 0.41 0.18 0.17 nan
0.44 0.39 0.70 0.59 0.46 0.32 1.01 1.20 1.58 1.40 1.43 1.87 1.07 1.14 2.55 0.67 0.77 0.60 0.64 0.63 0.59 0.22 0.22 0.15 0.11 0.06 0.25 0.52 2.86 0.99 0.64 nan 0.11 0.25 0.30 0.44 0.44 0.28
0.65 0.42 0.42 0.44 0.69 0.65 1.43 2.31 2.01 1.97 1.36 0.99 1.95 3.00 2.71 1.16 1.05 0.88 1.08 1.08 0.37 0.42 0.22 0.12 0.07 0.11 0.22 0.41 0.53 1.45 0.46 0.47 nan nan nan nan 0.68 1.03
1.15 0.54 0.78 1.02 1.27 1.34 0.59 1.26 0.56 1.18 1.04 1.05 0.95 0.99 5.19 1.22 0.76 0.81 0.95 0.68 0.42 0.41 0.29 0.31 0.18 0.15 0.19 0.25 0.42 0.64 0.32 0.80 0.33 0.35 0.51 nan nan nan
SL_Ratio
nan nan nan nan nan nan nan nan nan nan nan nan nan nan nan nan nan nan nan nan nan nan nan nan nan nan nan nan nan nan nan nan nan nan nan nan nan nan
nan nan nan nan nan nan nan nan nan nan nan nan nan nan nan nan nan nan nan nan nan nan nan nan nan nan nan nan nan nan nan nan nan nan nan nan nan nan
nan nan nan nan nan nan nan nan nan nan nan nan nan nan nan nan nan nan nan nan nan nan nan nan nan nan nan nan nan nan nan nan nan nan nan nan nan nan
nan nan nan nan nan nan nan nan nan nan nan nan nan nan nan nan nan nan nan nan nan nan nan nan nan nan nan nan nan nan nan nan nan nan nan nan nan nan
nan nan nan nan nan nan nan nan nan nan nan nan nan nan nan nan nan nan nan nan nan nan nan nan nan nan nan nan nan nan nan nan nan nan nan nan nan nan
nan nan nan nan nan nan nan nan nan nan nan nan nan nan nan nan nan nan nan nan nan nan nan nan nan nan nan nan nan nan nan nan nan nan nan nan nan nan
nan nan nan nan nan nan nan nan nan nan nan nan nan nan nan nan nan nan nan nan nan nan nan nan nan nan nan nan nan nan nan nan nan nan nan nan nan nan
nan nan nan nan nan nan nan nan nan nan nan nan nan nan nan nan nan nan nan nan 2.5 nan nan nan nan nan nan nan nan nan nan nan nan nan nan nan nan nan
nan nan nan nan nan nan nan nan nan nan nan nan nan nan nan nan nan nan 3.3 2.5 2.5 3.2 2.4 2.5 2.5 3.1 3.3 2.5 nan nan nan nan nan nan nan nan nan nan
nan nan nan nan nan nan nan nan 5.0 4.2 3.9 4.2 4.1 4.4 4.0 4.0 2.6 2.5 2.4 2.5 2.6 3.6 3.5 3.8 3.5 4.9 3.3 3.2 nan nan nan nan nan nan nan nan nan nan
4.0 nan nan nan nan nan 2.5 4.6 4.8 5.1 nan nan nan nan nan nan nan 2.6 2.9 3.0 3.8 5.3 5.1 4.0 4.5 4.3 3.8 3.7 3.4 nan nan nan nan nan nan nan nan nan
4.5 4.1 nan 3.0 nan nan 2.6 3.4 4.8 5.7 5.3 5.6 5.7 5.7 nan nan nan 3.6 3.2 3.5 4.7 5.4 5.0 4.9 4.8 4.8 5.6 4.8 4.6 4.8 4.9 nan nan nan nan nan nan 4.9
5.5 5.8 4.6 nan nan nan nan 5.1 5.8 5.6 5.7 5.6 5.8 5.7 5.5 5.5 5.4 5.1 5.0 4.5 5.1 6.3 5.7 4.6 5.3 5.1 5.3 5.7 5.6 5.9 5.6 5.9 5.4 5.3 nan nan nan nan
6.2 5.5 5.0 nan nan nan 4.2 nan nan 3.7 4.7 4.9 5.1 5.6 5.8 5.8 5.9 6.0 6.1 5.9 5.8 6.2 5.8 5.3 5.8 6.0 6.0 6.4 6.5 6.5 6.1 5.4 4.5 4.6 3.7 nan nan nan
5.0 5.5 nan nan nan 3.0 nan nan 3.0 4.0 4.2 4.5 5.0 5.4 5.4 5.8 6.0 6.2 6.5 6.7 7.1 6.4 5.6 5.3 5.4 5.8 5.7 6.2 6.7 6.5 5.2 4.8 3.4 3.3 3.2 3.3 3.3 3.1
3.5 4.7 3.0 4.2 3.0 3.7 4.4 5.4 5.5 5.3 5.4 5.8 6.2 6.2 6.0 5.8 5.8 5.8 5.8 5.6 5.4 5.3 4.7 5.7 5.9 6.1 5.1 5.2 5.0 4.7 3.7 4.0 3.2 3.3 3.1 3.4 3.4 3.3
4.1 5.2 5.5 6.0 6.5 6.8 6.8 6.6 6.5 6.5 6.6 6.6 6.6 6.8 6.6 6.2 6.0 5.2 5.6 5.6 5.6 5.7 5.3 4.5 7.1 6.5 4.2 5.2 4.3 4.2 4.3 4.8 4.6 3.9 4.2 4.0 3.5 3.5
5.4 6.2 6.7 6.7 7.2 7.6 7.4 7.6 7.5 6.4 7.3 6.5 6.3 6.5 6.6 6.6 6.7 6.0 5.9 6.0 6.3 6.4 6.6 6.6 5.8 5.8 5.8 5.7 5.1 5.1 5.0 4.3 4.2 3.5 3.6 4.2 4.1 3.8
6.6 7.7 7.3 6.9 7.1 8.1 7.9 7.8 7.4 7.1 8.3 6.3 6.2 6.2 6.1 6.2 5.8 5.8 5.6 5.5 5.6 5.8 6.2 5.1 5.1 5.1 6.7 7.1 3.8 nan 4.6 4.1 4.0 3.9 3.6 4.3 4.8 4.3
7.4 7.6 7.9 7.4 8.2 8.7 8.5 8.2 7.7 7.1 6.9 6.7 6.7 7.0 7.0 6.6 6.1 6.1 5.8 6.6 5.4 4.8 4.6 4.4 4.7 5.3 7.6 7.4 6.0 4.4 nan 4.2 4.4 5.0 5.0 3.9 3.8 nan
6.9 7.1 6.9 6.9 6.8 6.1 6.7 6.6 6.6 6.6 6.5 6.6 6.6 6.5 6.3 6.1 6.1 6.1 6.2 4.8 4.7 5.7 5.6 5.0 4.3 3.0 5.3 5.0 5.8 4.7 4.0 nan 4.2 4.8 4.9 5.4 5.2 4.8
7.6 7.4 7.1 7.6 7.3 7.2 6.7 6.7 6.4 6.4 6.8 6.7 6.8 6.4 6.1 6.8 7.2 7.0 6.7 6.7 6.2 6.3 6.3 4.9 4.5 5.0 5.3 6.3 6.0 5.1 4.5 4.2 nan nan nan nan 6.6 7.3
7.4 7.9 7.6 7.3 7.1 7.0 7.5 7.2 7.1 6.8 7.1 7.1 7.0 6.9 6.0 7.4 6.9 6.8 6.4 6.4 6.6 6.4 6.3 6.8 6.2 5.9 5.4 5.9 6.3 5.8 6.0 5.0 4.8 4.9 4.3 nan nan nan